Time,TemperatureF,DewpointF,PressureIn,WindDirection,WindDirectionDegrees,WindSpeedMPH,WindSpeedGustMPH,Humidity,HourlyPrecipIn,Conditions,Clouds,dailyrainin,SoftwareType,DateUTC
2013-02-12 00:09:00,6.9,3.0,30.11,WSW,257,0.0,0.0,82,0.00,,,0.00,weatherlink.com 1.10,2013-02-12 07:09:00,
2013-02-12 00:24:00,6.4,3.0,30.11,WSW,257,0.0,1.0,84,0.00,,,0.00,weatherlink.com 1.10,2013-02-12 07:24:00,
2013-02-12 00:39:00,6.3,3.0,30.11,North,4,0.0,1.0,84,0.00,,,0.00,weatherlink.com 1.10,2013-02-12 07:39:00,
2013-02-12 00:54:00,8.2,4.0,30.11,NW,316,0.0,1.0,81,0.00,,,0.00,weatherlink.com 1.10,2013-02-12 07:54:00,
2013-02-12 01:09:00,7.8,3.0,30.11,NE,52,0.0,3.0,79,0.00,,,0.00,weatherlink.com 1.10,2013-02-12 08:09:00,
2013-02-12 01:24:00,7.9,3.0,30.12,NE,53,0.0,0.0,80,0.00,,,0.00,weatherlink.com 1.10,2013-02-12 08:24:00,
2013-02-12 01:39:00,7.7,3.0,30.12,NE,53,0.0,0.0,81,0.00,,,0.00,weatherlink.com 1.10,2013-02-12 08:39:00,
2013-02-12 01:54:00,6.9,3.0,30.13,NE,52,0.0,0.0,82,0.00,,,0.00,weatherlink.com 1.10,2013-02-12 08:54:00,
2013-02-12 02:09:00,6.0,2.0,30.13,NNE,30,0.0,1.0,84,0.00,,,0.00,weatherlink.com 1.10,2013-02-12 09:09:00,
2013-02-12 02:24:00,6.8,3.0,30.13,NNE,17,0.0,1.0,84,0.00,,,0.00,weatherlink.com 1.10,2013-02-12 09:24:00,
2013-02-12 02:39:00,7.5,3.0,30.13,NNW,340,0.0,0.0,82,0.00,,,0.00,weatherlink.com 1.10,2013-02-12 09:39:00,
2013-02-12 02:54:00,7.9,4.0,30.12,NNW,342,0.0,1.0,82,0.00,,,0.00,weatherlink.com 1.10,2013-02-12 09:54:00,
2013-02-12 03:09:00,8.5,4.0,30.12,WNW,288,0.0,0.0,81,0.00,,,0.00,weatherlink.com 1.10,2013-02-12 10:09:00,
2013-02-12 03:24:00,8.8,4.0,30.12,WNW,288,0.0,0.0,79,0.00,,,0.00,weatherlink.com 1.10,2013-02-12 10:24:00,
2013-02-12 03:39:00,5.3,0.0,30.12,WSW,256,1.0,1.0,79,0.00,,,0.00,weatherlink.com 1.10,2013-02-12 10:39:00,
2013-02-12 03:54:00,-999.0,-99.9,30.11,North,-999,-999.0,-999.0,-999,0.00,,,0.00,weatherlink.com 1.10,2013-02-12 10:54:00,
2013-02-12 04:10:00,-999.0,-99.9,30.10,North,-999,-999.0,-999.0,-999,0.00,,,0.00,weatherlink.com 1.10,2013-02-12 11:10:00,
2013-02-12 04:25:00,-999.0,-99.9,30.09,North,-999,-999.0,-999.0,-999,0.00,,,0.00,weatherlink.com 1.10,2013-02-12 11:25:00,
2013-02-12 04:40:00,-999.0,-99.9,30.09,North,-999,-999.0,-999.0,-999,0.00,,,0.00,weatherlink.com 1.10,2013-02-12 11:40:00,
2013-02-12 04:55:00,-999.0,-99.9,30.09,North,-999,-999.0,-999.0,-999,0.00,,,0.00,weatherlink.com 1.10,2013-02-12 11:55:00,
2013-02-12 05:10:00,-999.0,-99.9,30.09,North,-999,-999.0,-999.0,-999,0.00,,,0.00,weatherlink.com 1.10,2013-02-12 12:10:00,
2013-02-12 05:25:00,-999.0,-99.9,30.09,North,-999,-999.0,-999.0,-999,0.00,,,0.00,weatherlink.com 1.10,2013-02-12 12:25:00,
2013-02-12 05:40:00,-999.0,-99.9,30.09,North,-999,-999.0,-999.0,-999,0.00,,,0.00,weatherlink.com 1.10,2013-02-12 12:40:00,
2013-02-12 05:55:00,-999.0,-99.9,30.10,North,-999,-999.0,-999.0,-999,0.00,,,0.00,weatherlink.com 1.10,2013-02-12 12:55:00,
2013-02-12 06:10:00,-999.0,-99.9,30.09,North,-999,-999.0,-999.0,-999,0.00,,,0.00,weatherlink.com 1.10,2013-02-12 13:10:00,
2013-02-12 06:25:00,-999.0,-99.9,30.09,North,-999,-999.0,-999.0,-999,0.00,,,0.00,weatherlink.com 1.10,2013-02-12 13:25:00,
2013-02-12 06:40:00,-999.0,-99.9,30.09,North,-999,-999.0,-999.0,-999,0.00,,,0.00,weatherlink.com 1.10,2013-02-12 13:40:00,
2013-02-12 06:55:00,-999.0,-99.9,30.10,North,-999,-999.0,-999.0,-999,0.00,,,0.00,weatherlink.com 1.10,2013-02-12 13:55:00,
2013-02-12 07:10:00,-999.0,-99.9,30.10,North,-999,-999.0,-999.0,-999,0.00,,,0.00,weatherlink.com 1.10,2013-02-12 14:10:00,
2013-02-12 07:25:00,16.0,6.0,30.11,WSW,249,2.0,4.0,64,0.00,,,0.00,weatherlink.com 1.10,2013-02-12 14:25:00,
2013-02-12 07:41:00,17.4,6.0,30.12,WSW,238,4.0,6.0,61,0.00,,,0.00,weatherlink.com 1.10,2013-02-12 14:41:00,
2013-02-12 07:56:00,18.1,7.0,30.13,West,262,1.0,5.0,62,0.00,,,0.00,weatherlink.com 1.10,2013-02-12 14:56:00,
2013-02-12 08:11:00,19.1,8.0,30.14,West,271,2.0,4.0,63,0.00,,,0.00,weatherlink.com 1.10,2013-02-12 15:11:00,
2013-02-12 08:26:00,20.5,9.0,30.14,West,261,3.0,6.0,62,0.00,,,0.00,weatherlink.com 1.10,2013-02-12 15:26:00,
2013-02-12 08:41:00,22.2,10.0,30.14,SSW,207,1.0,9.0,59,0.00,,,0.00,weatherlink.com 1.10,2013-02-12 15:41:00,
2013-02-12 08:56:00,24.7,11.0,30.14,WNW,283,4.0,11.0,56,0.00,,,0.00,weatherlink.com 1.10,2013-02-12 15:56:00,
2013-02-12 09:11:00,26.2,10.0,30.14,WNW,288,7.0,10.0,50,0.00,,,0.00,weatherlink.com 1.10,2013-02-12 16:11:00,
2013-02-12 09:26:00,27.3,9.0,30.15,WNW,293,5.0,10.0,47,0.00,,,0.00,weatherlink.com 1.10,2013-02-12 16:26:00,
2013-02-12 09:41:00,28.0,10.0,30.15,WSW,256,6.0,12.0,46,0.00,,,0.00,weatherlink.com 1.10,2013-02-12 16:41:00,
2013-02-12 09:56:00,29.3,10.0,30.15,West,260,4.0,11.0,45,0.00,,,0.00,weatherlink.com 1.10,2013-02-12 16:56:00,
2013-02-12 10:11:00,30.1,10.0,30.15,West,267,7.0,12.0,43,0.00,,,0.00,weatherlink.com 1.10,2013-02-12 17:11:00,
2013-02-12 10:26:00,31.1,11.0,30.14,WNW,287,4.0,12.0,43,0.00,,,0.00,weatherlink.com 1.10,2013-02-12 17:26:00,
2013-02-12 10:41:00,32.1,10.0,30.14,West,280,6.0,13.0,40,0.00,,,0.00,weatherlink.com 1.10,2013-02-12 17:41:00,
2013-02-12 10:57:00,33.1,12.0,30.13,NW,309,8.0,11.0,41,0.00,,,0.00,weatherlink.com 1.10,2013-02-12 17:57:00,
2013-02-12 11:12:00,34.1,11.0,30.13,WNW,298,5.0,11.0,39,0.00,,,0.00,weatherlink.com 1.10,2013-02-12 18:12:00,
2013-02-12 11:27:00,35.0,10.0,30.12,WSW,255,7.0,13.0,36,0.00,,,0.00,weatherlink.com 1.10,2013-02-12 18:27:00,
2013-02-12 11:42:00,35.5,11.0,30.11,West,276,3.0,14.0,37,0.00,,,0.00,weatherlink.com 1.10,2013-02-12 18:42:00,
2013-02-12 11:57:00,36.2,12.0,30.10,NW,307,9.0,15.0,37,0.00,,,0.00,weatherlink.com 1.10,2013-02-12 18:57:00,
2013-02-12 12:12:00,37.0,12.0,30.10,WNW,290,5.0,12.0,36,0.00,,,0.00,weatherlink.com 1.10,2013-02-12 19:12:00,
2013-02-12 12:27:00,38.3,13.0,30.09,West,264,6.0,11.0,35,0.00,,,0.00,weatherlink.com 1.10,2013-02-12 19:27:00,
2013-02-12 12:42:00,38.9,11.0,30.08,SW,215,6.0,13.0,32,0.00,,,0.00,weatherlink.com 1.10,2013-02-12 19:42:00,
2013-02-12 12:57:00,39.4,12.0,30.08,West,262,5.0,15.0,33,0.00,,,0.00,weatherlink.com 1.10,2013-02-12 19:57:00,
2013-02-12 13:12:00,39.7,13.0,30.07,WNW,290,8.0,12.0,33,0.00,,,0.00,weatherlink.com 1.10,2013-02-12 20:12:00,
2013-02-12 13:27:00,40.6,10.0,30.07,West,275,12.0,16.0,29,0.00,,,0.00,weatherlink.com 1.10,2013-02-12 20:27:00,
2013-02-12 13:42:00,40.9,14.0,30.07,WNW,290,6.0,13.0,33,0.00,,,0.00,weatherlink.com 1.10,2013-02-12 20:42:00,
2013-02-12 13:58:00,40.7,13.0,30.07,West,278,3.0,11.0,32,0.00,,,0.00,weatherlink.com 1.10,2013-02-12 20:58:00,
2013-02-12 14:13:00,40.9,12.0,30.06,WSW,256,7.0,15.0,31,0.00,,,0.00,weatherlink.com 1.10,2013-02-12 21:13:00,
2013-02-12 14:28:00,41.1,12.0,30.06,WNW,294,5.0,-999.0,31,-99.99,,,0.00,weatherlink.com 1.10,2013-02-12 21:28:00,
2013-02-12 14:43:00,41.2,14.0,30.07,West,269,4.0,11.0,33,0.00,,,0.00,weatherlink.com 1.10,2013-02-12 21:43:00,
2013-02-12 14:58:00,39.7,12.0,30.07,West,259,10.0,14.0,32,0.00,,,0.00,weatherlink.com 1.10,2013-02-12 21:58:00,
2013-02-12 15:13:00,39.8,13.0,30.07,West,271,9.0,11.0,34,0.00,,,0.00,weatherlink.com 1.10,2013-02-12 22:13:00,
2013-02-12 15:28:00,38.4,13.0,30.07,West,276,8.0,13.0,36,0.00,,,0.00,weatherlink.com 1.10,2013-02-12 22:28:00,
2013-02-12 15:43:00,38.4,13.0,30.07,West,269,3.0,10.0,36,0.00,,,0.00,weatherlink.com 1.10,2013-02-12 22:43:00,
2013-02-12 15:57:00,38.1,14.0,30.06,WSW,253,2.0,8.0,37,0.00,,,0.00,weatherlink.com 1.10,2013-02-12 22:57:00,
2013-02-12 16:12:00,38.0,14.0,30.06,WNW,300,2.0,7.0,37,0.00,,,0.00,weatherlink.com 1.10,2013-02-12 23:12:00,
2013-02-12 16:28:00,37.5,15.0,30.05,WNW,290,5.0,11.0,40,0.00,,,0.00,weatherlink.com 1.10,2013-02-12 23:28:00,
2013-02-12 16:43:00,35.8,15.0,30.05,WNW,300,5.0,10.0,42,0.00,,,0.00,weatherlink.com 1.10,2013-02-12 23:43:00,
2013-02-12 16:58:00,34.4,14.0,30.05,WSW,250,8.0,13.0,43,0.00,,,0.00,weatherlink.com 1.10,2013-02-12 23:58:00,
2013-02-12 17:13:00,32.3,14.0,30.06,SW,235,3.0,10.0,48,0.00,,,0.00,weatherlink.com 1.10,2013-02-13 00:13:00,
2013-02-12 17:28:00,30.7,15.0,30.06,WSW,245,3.0,10.0,52,0.00,,,0.00,weatherlink.com 1.10,2013-02-13 00:28:00,
2013-02-12 17:43:00,29.4,15.0,30.07,West,270,8.0,8.0,55,0.00,,,0.00,weatherlink.com 1.10,2013-02-13 00:43:00,
2013-02-12 17:58:00,28.3,15.0,30.07,West,259,3.0,7.0,57,0.00,,,0.00,weatherlink.com 1.10,2013-02-13 00:58:00,
2013-02-12 18:13:00,27.4,15.0,30.07,West,274,3.0,4.0,59,0.00,,,0.00,weatherlink.com 1.10,2013-02-13 01:13:00,
2013-02-12 18:28:00,26.8,14.0,30.07,WSW,245,4.0,6.0,59,0.00,,,0.00,weatherlink.com 1.10,2013-02-13 01:28:00,
2013-02-12 18:43:00,26.2,14.0,30.07,WSW,253,2.0,7.0,60,0.00,,,0.00,weatherlink.com 1.10,2013-02-13 01:43:00,
2013-02-12 18:58:00,26.3,14.0,30.08,WNW,286,2.0,7.0,60,0.00,,,0.00,weatherlink.com 1.10,2013-02-13 01:58:00,
2013-02-12 19:13:00,26.4,14.0,30.07,WNW,300,3.0,8.0,60,0.00,,,0.00,weatherlink.com 1.10,2013-02-13 02:13:00,
2013-02-12 19:28:00,26.5,14.0,30.08,West,267,3.0,9.0,59,0.00,,,0.00,weatherlink.com 1.10,2013-02-13 02:28:00,
2013-02-12 19:43:00,26.2,14.0,30.08,WNW,297,3.0,8.0,60,0.00,,,0.00,weatherlink.com 1.10,2013-02-13 02:43:00,
2013-02-12 19:58:00,25.4,14.0,30.07,WNW,289,0.0,3.0,61,0.00,,,0.00,weatherlink.com 1.10,2013-02-13 02:58:00,
2013-02-12 20:13:00,24.6,13.0,30.08,SW,229,0.0,1.0,62,0.00,,,0.00,weatherlink.com 1.10,2013-02-13 03:13:00,
2013-02-12 20:28:00,23.6,13.0,30.07,WSW,238,0.0,1.0,65,0.00,,,0.00,weatherlink.com 1.10,2013-02-13 03:28:00,
2013-02-12 20:43:00,23.5,13.0,30.07,WSW,244,0.0,1.0,65,0.00,,,0.00,weatherlink.com 1.10,2013-02-13 03:43:00,
2013-02-12 20:58:00,22.9,13.0,30.08,West,269,1.0,4.0,67,0.00,,,0.00,weatherlink.com 1.10,2013-02-13 03:58:00,
2013-02-12 21:13:00,23.2,14.0,30.07,SW,235,1.0,4.0,67,0.00,,,0.00,weatherlink.com 1.10,2013-02-13 04:13:00,
2013-02-12 21:28:00,24.6,15.0,30.08,West,280,4.0,8.0,66,0.00,,,0.00,weatherlink.com 1.10,2013-02-13 04:28:00,
2013-02-12 21:43:00,26.7,15.0,30.07,WNW,300,4.0,12.0,62,0.00,,,0.00,weatherlink.com 1.10,2013-02-13 04:43:00,
2013-02-12 21:59:00,27.6,15.0,30.07,West,263,3.0,11.0,60,0.00,,,0.00,weatherlink.com 1.10,2013-02-13 04:59:00,
2013-02-12 22:14:00,27.6,15.0,30.07,WSW,255,4.0,8.0,60,0.00,,,0.00,weatherlink.com 1.10,2013-02-13 05:14:00,
2013-02-12 22:29:00,27.4,15.0,30.07,West,261,7.0,10.0,60,0.00,,,0.00,weatherlink.com 1.10,2013-02-13 05:29:00,
2013-02-12 22:44:00,26.6,15.0,30.06,WNW,287,3.0,10.0,62,0.00,,,0.00,weatherlink.com 1.10,2013-02-13 05:44:00,
2013-02-12 22:59:00,26.0,15.0,30.05,West,278,3.0,8.0,63,0.00,,,0.00,weatherlink.com 1.10,2013-02-13 05:59:00,
2013-02-12 23:15:00,26.3,16.0,30.04,SW,222,3.0,6.0,64,0.00,,,0.00,weatherlink.com 1.10,2013-02-13 06:15:00,
2013-02-12 23:29:00,27.7,16.0,30.03,WSW,253,5.0,8.0,62,0.00,,,0.00,weatherlink.com 1.10,2013-02-13 06:29:00,
2013-02-12 23:44:00,28.9,16.0,30.02,West,263,5.0,13.0,60,0.00,,,0.00,weatherlink.com 1.10,2013-02-13 06:44:00,
2013-02-12 23:59:00,28.8,16.0,30.02,WNW,300,5.0,11.0,60,0.00,,,0.00,weatherlink.com 1.10,2013-02-13 06:59:00,